Tracking 22124 objects as of 25-Jan-2021
HD Live streaming from Space Station
objects crossing your sky now

WESTFORD NEEDLES

Track WESTFORD NEEDLES now!
10-day predictions
WESTFORD NEEDLES is classified as:


NORAD ID: 2530
Int'l Code: 1963-014AJ
Perigee: 2,943.0 km
Apogee: 4,303.3 km
Inclination: 87.4 °
Period: 165.7 minutes
Semi major axis: 9994 km
RCS: 0.1665 m2 (medium)
Launch date: May 9, 1963
Source: United States (US)
Launch site: AIR FORCE WESTERN TEST RANGE (AFWTR)
aabbcc
Your satellite tracking list
Your tracking list is empty




NASA's NSSDC Master Catalog

Two Line Element Set (TLE):
1  2530U 63014AJ  19339.02605628 +.00000002 +00000-0 +10000-3 0  9994
2  2530 087.4136 004.4697 0680564 329.3339 026.9797 08.68932939732483
Source of the keplerian elements: AFSPC